[Date Prev][Date Next][Thread Prev][Thread Next] - [Date Index][Thread Index][Author Index]

Update MIR Keps 1-29



 Gee Looks like the MIR crew has one foot on the break and one on
the Turbo up there (-:

MIR
1 16609U 86017A   99029.69123025  .00074045  00000-0  58056-3 0  1585
2 16609  51.6660 333.1924 0012538  69.6608   6.4642 15.70785833739612

----
Via the sarex mailing list at AMSAT.ORG courtesy of AMSAT-NA.
To unsubscribe, send "unsubscribe sarex" to Majordomo@amsat.org



AMSAT Top AMSAT Home